Winona, MN

12:27 AM CDT on July 24, 2017 (GMT -0500)
Winona Municipal-Conrad

Weather History for KONA - January, 2013

Change the Weather History Date:

Tuesday, January 8, 2013

  Actual Average Record
Temperature  
Mean Temperature 24 °F -  
Max Temperature 35 °F 24 °F 55 °F (2003)
Min Temperature 12 °F 12 °F -12 °F (1974)
Degree Days  
Heating Degree Days 42    
Moisture  
Dew Point 20 °F    
Average Humidity 84    
Maximum Humidity 93    
Minimum Humidity 70    
Precipitation  
Precipitation 0.00 in - - ()
Sea Level Pressure  
Sea Level Pressure 29.94 in    
Wind  
Wind Speed 2 mph (South)    
Max Wind Speed 10 mph    
Max Gust Speed 20 mph    
Visibility 8 miles    
Events      
Averages and records for this station are not official NWS values.
T = Trace of Precipitation, MM = Missing Value Source: NWS Daily Summary

Daily Weather History Graph

Daily Weather History Graph

Search for Another Location

Airport or City:

Trip Planner

Search our weather history database for the weather conditions in past years. The results will help you decide how hot, cold, wet, or windy it might be!

Date:

Astronomy

Jan. 08, 2013 Rise Set
Actual Time 7:41 AM CST 4:46 PM CST
Civil Twilight 7:08 AM CST 5:19 PM CST
Nautical Twilight 6:32 AM CST 5:55 PM CST
Astronomical Twilight 5:57 AM CST 6:30 PM CST
Moon 4:13 AM CST (1/8) 1:49 PM CST (1/8)
Length of Visible Light 10h 10m
Length of Day
9h 05m
Waning Crescent, 13% of the Moon is Illuminated
Jan 8
Waning Crescent
Jan 11
New
Jan 18
First Quarter
Jan 26
Full
Feb 3
Last Quarter

Hourly Weather History & Observations

Time (CST) Temp. Windchill Dew Point Humidity Pressure Visibility Wind Dir Wind Speed Gust Speed Precip Events Conditions
12:14 AM 17.6 °F - 14.0 °F 86% 30.01 in 10.0 mi Calm Calm - N/A   Clear
12:33 AM 15.8 °F - 14.0 °F 93% 30.01 in 10.0 mi Calm Calm - N/A   Clear
12:54 AM 17.6 °F - 14.0 °F 86% 30.02 in 10.0 mi Calm Calm - N/A   Clear
1:14 AM 15.8 °F - 14.0 °F 93% 30.02 in 10.0 mi Calm Calm - N/A   Clear
1:33 AM 14.0 °F - 12.2 °F 93% 30.02 in 10.0 mi Calm Calm - N/A   Clear
1:54 AM 14.0 °F - 12.2 °F 93% 30.02 in 5.0 mi Calm Calm - N/A   Clear
2:14 AM 14.0 °F - 12.2 °F 93% 30.02 in 10.0 mi Calm Calm - N/A   Clear
2:33 AM 14.0 °F - 10.4 °F 86% 30.02 in 10.0 mi Calm Calm - N/A   Clear
2:54 AM 14.0 °F 8.2 °F 12.2 °F 93% 30.03 in 10.0 mi NW 3.5 mph - N/A   Clear
3:14 AM 14.0 °F - 10.4 °F 86% 30.03 in 10.0 mi Calm Calm - N/A   Clear
3:33 AM 14.0 °F - 10.4 °F 86% 30.03 in 10.0 mi Calm Calm - N/A   Clear
3:54 AM 14.0 °F - 10.4 °F 86% 30.02 in 10.0 mi Calm Calm - N/A   Clear
4:14 AM 12.2 °F - 10.4 °F 92% 30.02 in 10.0 mi Calm Calm - N/A   Clear
4:33 AM 14.0 °F - 10.4 °F 86% 30.02 in 10.0 mi Calm Calm - N/A   Clear
4:54 AM 12.2 °F - 10.4 °F 92% 30.02 in 10.0 mi Calm Calm - N/A   Scattered Clouds
5:14 AM 14.0 °F - 10.4 °F 86% 30.01 in 10.0 mi Calm Calm - N/A   Scattered Clouds
5:33 AM 12.2 °F - 10.4 °F 92% 30.02 in 10.0 mi Calm Calm - N/A   Mostly Cloudy
6:14 AM 14.0 °F - 10.4 °F 86% 30.02 in 10.0 mi Calm Calm - N/A   Overcast
6:33 AM 14.0 °F - 10.4 °F 86% 30.02 in 2.5 mi Calm Calm - N/A   Overcast
6:54 AM 15.8 °F - 14.0 °F 93% 30.02 in 7.0 mi Calm Calm - N/A   Overcast
7:33 AM 14.0 °F - 12.2 °F 93% 30.02 in 3.0 mi Calm Calm - N/A   Overcast
7:54 AM 14.0 °F - 12.2 °F 93% 30.02 in 3.0 mi Calm Calm - N/A   Overcast
8:14 AM 15.8 °F 10.2 °F 14.0 °F 93% 30.02 in 1.2 mi SSE 3.5 mph - N/A   Overcast
8:34 AM 15.8 °F - 14.0 °F 93% 30.02 in 1.0 mi Calm Calm - N/A   Overcast
8:54 AM 15.8 °F 10.2 °F 14.0 °F 93% 30.02 in 1.2 mi SSE 3.5 mph - N/A   Overcast
9:14 AM 17.6 °F 10.7 °F 14.0 °F 86% 30.02 in 1.5 mi SE 4.6 mph - N/A   Overcast
9:34 AM 19.4 °F 12.8 °F 17.6 °F 93% 30.02 in 1.5 mi SSE 4.6 mph - N/A   Overcast
9:54 AM 19.4 °F 14.3 °F 17.6 °F 93% 30.01 in 1.8 mi SSE 3.5 mph - N/A   Overcast
10:14 AM 19.4 °F 12.8 °F 17.6 °F 93% 30.00 in 2.5 mi SSE 4.6 mph - N/A   Overcast
10:34 AM 19.4 °F 14.3 °F 17.6 °F 93% 29.99 in 2.0 mi SSE 3.5 mph - N/A   Overcast
10:54 AM 21.2 °F 16.4 °F 19.4 °F 93% 29.98 in 4.0 mi SE 3.5 mph - N/A   Mostly Cloudy
11:14 AM 23.0 °F 18.4 °F 21.2 °F 93% 29.97 in 5.0 mi SSE 3.5 mph - N/A   Scattered Clouds
11:34 AM 26.6 °F 20.0 °F 23.0 °F 86% 29.96 in 5.0 mi SE 5.8 mph - N/A   Clear
11:54 AM 26.6 °F 20.0 °F 23.0 °F 86% 29.94 in 5.0 mi SSE 5.8 mph - N/A   Clear
12:14 PM 28.4 °F 21.2 °F 26.6 °F 93% 29.93 in 7.0 mi SE 6.9 mph - N/A   Clear
12:34 PM 28.4 °F 19.1 °F 24.8 °F 86% 29.92 in 7.0 mi SE 10.4 mph - N/A   Clear
12:54 PM 28.4 °F 20.4 °F 23.0 °F 80% 29.91 in 7.0 mi SE 8.1 mph - N/A   Clear
1:14 PM 28.4 °F 21.2 °F 23.0 °F 80% 29.90 in 7.0 mi SE 6.9 mph - N/A   Clear
1:54 PM 32.0 °F 25.6 °F 26.6 °F 80% 29.87 in 10.0 mi SE 6.9 mph - N/A   Clear
2:14 PM 32.0 °F 27.5 °F 26.6 °F 80% 29.86 in 10.0 mi SSE 4.6 mph - N/A   Clear
2:34 PM 33.8 °F 30.8 °F 26.6 °F 75% 29.85 in 10.0 mi SSE 3.5 mph - N/A   Clear
2:54 PM 33.8 °F 29.6 °F 26.6 °F 75% 29.85 in 10.0 mi SSE 4.6 mph - N/A   Clear
3:14 PM 35.6 °F 29.2 °F 26.6 °F 70% 29.86 in 10.0 mi South 8.1 mph - N/A   Clear
3:34 PM 35.6 °F 32.8 °F 26.6 °F 70% 29.86 in 10.0 mi SSE 3.5 mph - N/A   Clear
3:54 PM 33.8 °F 30.8 °F 26.6 °F 75% 29.86 in 10.0 mi SSE 3.5 mph - N/A   Clear
4:14 PM 33.8 °F 30.8 °F 26.6 °F 75% 29.86 in 10.0 mi South 3.5 mph - N/A   Clear
4:34 PM 33.8 °F - 26.6 °F 75% 29.86 in 10.0 mi Calm Calm - N/A   Clear
4:54 PM 33.8 °F 30.8 °F 26.6 °F 75% 29.86 in 10.0 mi South 3.5 mph - N/A   Clear
5:14 PM 33.8 °F 30.8 °F 28.4 °F 81% 29.86 in 10.0 mi South 3.5 mph - N/A   Clear
5:34 PM 33.8 °F 25.8 °F 28.4 °F 81% 29.85 in 10.0 mi South 10.4 mph - N/A   Clear
5:54 PM 33.8 °F 28.6 °F 28.4 °F 81% 29.84 in 10.0 mi South 5.8 mph - N/A   Clear
6:14 PM 33.8 °F 28.6 °F 26.6 °F 75% 29.85 in 10.0 mi South 5.8 mph - N/A   Clear
6:34 PM 35.6 °F 29.2 °F 28.4 °F 75% 29.83 in 10.0 mi South 8.1 mph 17.3 mph N/A   Clear
6:54 PM 35.6 °F 31.7 °F 28.4 °F 75% 29.83 in 10.0 mi South 4.6 mph - N/A   Scattered Clouds
7:14 PM 35.6 °F 29.9 °F 28.4 °F 75% 29.83 in 10.0 mi South 6.9 mph 18.4 mph N/A   Clear
7:34 PM 35.6 °F 32.8 °F 28.4 °F 75% 29.83 in 10.0 mi South 3.5 mph - N/A   Clear
7:54 PM 35.6 °F 32.8 °F 28.4 °F 75% 29.83 in 10.0 mi South 3.5 mph - N/A   Mostly Cloudy
8:14 PM 35.6 °F 30.7 °F 28.4 °F 75% 29.83 in 10.0 mi SW 5.8 mph - N/A   Scattered Clouds
8:34 PM 35.6 °F - 28.4 °F 75% 29.85 in 10.0 mi Calm Calm - N/A   Mostly Cloudy
8:54 PM 35.6 °F 29.9 °F 28.4 °F 75% 29.85 in 10.0 mi SW 6.9 mph - N/A   Overcast
9:14 PM 35.6 °F 30.7 °F 28.4 °F 75% 29.86 in 10.0 mi WSW 5.8 mph - N/A   Overcast
9:34 PM 35.6 °F 29.9 °F 28.4 °F 75% 29.87 in 10.0 mi West 6.9 mph 16.1 mph N/A   Overcast
9:54 PM 33.8 °F 26.4 °F 26.6 °F 75% 29.87 in 10.0 mi West 9.2 mph 19.6 mph N/A   Mostly Cloudy
10:14 PM 33.8 °F 28.6 °F 26.6 °F 75% 29.89 in 10.0 mi West 5.8 mph - N/A   Scattered Clouds
10:34 PM 32.0 °F 24.8 °F 24.8 °F 75% 29.90 in 10.0 mi West 8.1 mph - N/A   Clear
11:14 PM 32.0 °F 26.4 °F 26.6 °F 80% 29.92 in 10.0 mi West 5.8 mph - N/A   Mostly Cloudy
11:54 PM 32.0 °F 26.4 °F 26.6 °F 80% 29.92 in 10.0 mi West 5.8 mph - N/A   Overcast